TimeMST,TemperatureF,Dew PointF,Humidity,Sea Level PressureIn,VisibilityMPH,Wind Direction,Wind SpeedMPH,Gust SpeedMPH,PrecipitationIn,Events,Conditions,WindDirDegrees,DateUTC
12:53 AM,28.9,27.0,92,30.38,10.0,East,3.5,-,N/A,,Clear,80,2013-02-03 07:53:00
1:53 AM,28.9,27.0,92,30.36,10.0,East,3.5,-,N/A,,Clear,90,2013-02-03 08:53:00
2:53 AM,28.9,24.1,82,30.34,10.0,SE,3.5,-,N/A,,Clear,140,2013-02-03 09:53:00
3:53 AM,27.0,25.0,92,30.33,10.0,Calm,Calm,-,N/A,,Clear,0,2013-02-03 10:53:00
4:53 AM,27.0,25.0,92,30.32,10.0,Calm,Calm,-,N/A,,Clear,0,2013-02-03 11:53:00
5:53 AM,28.0,26.1,92,30.32,10.0,Calm,Calm,-,N/A,,Clear,0,2013-02-03 12:53:00
6:53 AM,27.0,25.0,92,30.31,10.0,Calm,Calm,-,N/A,,Clear,0,2013-02-03 13:53:00
7:53 AM,28.0,27.0,96,30.31,10.0,Calm,Calm,-,N/A,,Clear,0,2013-02-03 14:53:00
8:53 AM,28.9,25.0,85,30.29,10.0,Calm,Calm,-,N/A,,Clear,0,2013-02-03 15:53:00
9:53 AM,30.0,23.0,75,30.29,10.0,Calm,Calm,-,N/A,,Clear,0,2013-02-03 16:53:00
10:53 AM,30.9,25.0,79,30.29,10.0,Calm,Calm,-,N/A,,Clear,0,2013-02-03 17:53:00
11:53 AM,33.1,26.1,75,30.25,10.0,Calm,Calm,-,N/A,,Clear,0,2013-02-03 18:53:00
12:53 PM,35.1,27.0,72,30.21,10.0,WNW,4.6,-,N/A,,Clear,300,2013-02-03 19:53:00
1:53 PM,35.1,27.0,72,30.19,10.0,NNW,5.8,-,N/A,,Overcast,330,2013-02-03 20:53:00
2:53 PM,35.1,28.0,76,30.18,10.0,NNW,6.9,-,N/A,,Overcast,330,2013-02-03 21:53:00
3:53 PM,36.0,28.9,76,30.18,10.0,West,3.5,-,N/A,,Mostly Cloudy,260,2013-02-03 22:53:00
4:53 PM,35.1,28.9,78,30.19,10.0,NW,3.5,-,N/A,,Overcast,310,2013-02-03 23:53:00
5:53 PM,33.1,28.9,85,30.19,10.0,NW,3.5,-,N/A,,Mostly Cloudy,310,2013-02-04 00:53:00
6:53 PM,30.9,28.9,92,30.20,10.0,NE,5.8,-,N/A,,Clear,40,2013-02-04 01:53:00
7:53 PM,30.9,28.0,89,30.20,10.0,East,4.6,-,N/A,,Clear,80,2013-02-04 02:53:00
8:53 PM,30.0,28.0,92,30.20,10.0,ENE,4.6,-,N/A,,Clear,60,2013-02-04 03:53:00
9:53 PM,28.9,28.0,96,30.21,10.0,Calm,Calm,-,N/A,,Partly Cloudy,0,2013-02-04 04:53:00
10:53 PM,28.0,27.0,96,30.20,10.0,Calm,Calm,-,N/A,,Clear,0,2013-02-04 05:53:00
11:53 PM,28.0,26.1,92,30.21,10.0,Calm,Calm,-,N/A,,Clear,0,2013-02-04 06:53:00